Location: Buckeye Ditch
(40.9104°N, 122.9517°W)
Time: 13:19:43
(UTC+00:00)

Explorer 7 - Pass Details

Date: 20 May 2025
Orbit: 445 x 571 km, 50.3° (Epoch: 22 June)

Event Time Altitude Azimuth Distance (km) Brightness Sun altitude
Rises 16:42:28 0° 300° (WNW) 2,669 9.9 41.9°
Reaches altitude 10° 16:44:41 10° 295° (WNW) 1,797 9.1 42.3°
Maximum altitude 16:48:40 50° 220° (SW) 703 7.7 43.0°
Drops below altitude 10° 16:52:46 10° 144° (SE) 1,847 10.2 43.8°
Sets 16:55:05 0° 139° (SE) 2,752 10.9 44.2°
